FENGYUN 1C DEB, 31274

Orbit data source: Space-Track

FENGYUN 1C DEB, 31274 is space debris in SSO originally from a launch on Mon, 10 May 1999 UTC launched from the Taiyaun Space Center, China (TSC). Fengyun 1C debris stems from the Chinese weather satellite Fengyun-1C, which was intentionally destroyed by a Chinese anti-satellite missile in 2007. This event dramatically increased the amount of space debris, with thousands of trackable fragments posing hazards to satellites and human spaceflight. The Fengyun 1C debris cloud has become a focal point in discussions about space sustainability and the need for international regulations to prevent the creation of new debris.

Loading next visibility...
Identifier
31274, 1999-025BNG
Orbit
SSO
Country
Flag of CNCN / PRC
Related business
Manufacturer
Unknown
Mission
Spacecraft
Bus & Motor
Unknown
Mass
Unknown
Launch date (UTC)
1999-05-10 (27 years ago)
Launch vehicle
Unknown
Launch site
Taiyaun Space Center, China (TSC)
Object type
Payload
Rocket body
Debris
Shape & HBR
Unknown shape, 0.1 m
Radar Cross Section
Small (<0.1 m²)

Expand to show TLE details & history
Last TLE update: 2 days ago

TLE from 2 days ago
0 FENGYUN 1C DEB
1 31274U 99025BNG 26061.33507809  .00001279  00000-0  91864-3 0  9992
2 31274  99.0082 242.7075 0241136 254.5616 102.8790 13.85830467953098
Epoch: 2026-03-02T08:02Z
TLE epoch observation values (Epoch: 2026-03-02T08:02:30.746Z)
Latitude
-0.00004°
Longitude
-38.05057°
Altitude
989.509 km
Speed
7.335 km/s
True Right ascension
16h 10m 49s
True Declination
0° 00' 00"
Sunlit
Object was in daylight at epoch
Visualization orbit readout
Latitude
Unknown
Longitude
Unknown
Altitude
Unknown
Speed
Unknown
Apparent Right ascension
Unknown
Apparent Declination
Unknown
Sunlit
N/A
Visualization observer readout
Local Sidereal Time
13:02:55
Azimuth
Unknown
Elevation
Unknown
Doppler factor
Unknown
Orbital elements
Apogee altitude
1,116.974 km
Perigee altitude
764.017 km
Semi-major axis
7,318.633 km
Eccentricity
0.02411
Inclination
99.0082°
RAAN
242.7075°
Arg. of periapsis
254.5616°
True anomaly
105.55375°
Mean anomaly
102.879°
Eccentric anomaly
104.21828°
Mean motion
3.46656 °/min
Orbital period
103.85 mins
BSTAR
0.00091864
Loading maneuver chart data...
Computing Atmospheric mass density...
Loading historical data...
Loading historical data...
Loading historical data...
Loading historical data...
Loading historical data...
Loading historical data...
Loading historical data...

Documentation

Showing up to 5 results
|